Weather in Apsua

Russia / Karachay-Cherkess Republic     44°26′58″N   41°47′44″E
temp.,
°C
wind,
m/s
gust,
m/s
humid.,
%
clouds,
%
prec.,
mm/h
press.,
hPa
HPBL,
m
10 may, mon
mon1000:00+4w714885 0.0 1023467
03:00+4w715815 0.0 1023470
06:00+4wsw714785 0.0 1023573
09:00+8w9126199 0.3 10221657
12:00+10w9125393 0.1 10212126
15:00+10wnw91260100 0.3 10201932
18:00+8wnw81375100 0.3 10201230
21:00+5w51276100 0.3 1021538
11 may, tue
tue1100:00+4w5127599 0.0 1019480
03:00+5s3682100 0.0 1018141
06:00+4sse3660100 0.0 1018184
09:00+8sse4562100 0.0 1017596
12:00+12se3451100 0.0 10151467
15:00+11ne3563100 0.1 10161342
18:00+11e587087 0.1 1016652
21:00+7ene2381100 0.1 101770
12 may, wed
wed1200:00+5e119381 0.0 101713
03:00+4sse11936 0.0 101711
06:00+5s228710 0.0 101867
09:00+11ese33705 0.0 1016620
12:00+16e44585 0.0 10151174
15:00+18e555695 0.0 10151284
18:00+16e59711 0.0 1015522
21:00+10ese388872 0.0 1015139
13 may, thu
thu1300:00+9ese34920 0.0 101457
03:00+8se23925 0.0 101430
06:00+9se348135 0.0 101579
09:00+17ese34640 0.0 1013386
12:00+22e565410 0.0 1013755
15:00+23e675823 0.0 1012931
18:00+20e6117529 0.0 1012482
21:00+15ese3690100 0.0 101393
14 may, fri
fri1400:00+13se33930 0.0 101341
03:00+13sse44770 0.0 101351
06:00+13sse45655 0.0 101367
09:00+22se34515 0.0 1013276
12:00+27ese33445 0.0 1012668
15:00+28ene434759 0.0 10121004
18:00+24e477420 0.0 1012240
21:00+18ese22875 0.0 101221